Regional Weather Roundup
Issued by NWS Spokane, WA

Home | Current Version | Previous Version | Text Only | Print | Product List | Glossary On
Versions: 1 2 3 4 5 6 7 8 9 10 11 12 13 14 15 16 17 18 19 20 21 22 23 24 25 26 27 28 29 30 31 32 33 34 35 36 37 38 39 40 41 42 43 44 45 46 47 48 49 50
209
NZUS01 KOTX 241125
RWROTX

Eastern Washington/Northern Idaho Roundup
National Weather Service, Spokane WA
400 AM PDT TUE OCT 24 2017

Note: "fair" indicated few or no clouds below 12,000 feet with no
significant weather and/or obstructions to visibility.

...Northeast Washington and Northern Idaho Panhandle...

CITY           SKY/WX    TMP DP  RH WIND       PRES   REMARKS
Spokane Intl   CLEAR     37  37 100 NE3       30.67F
Spokane Downto FOG       36  35  96 E5        30.70F VSB 1/2
Coeur d Alene  FOG       32  30  93 NE5       30.70S VSB 1/2 WCI  27
Deer Park      CLEAR     30  28  92 CALM      30.69F
Sandpoint      CLEAR     30  30 100 CALM      30.73R

...Southeast Washington and southern Idaho Panhandle...

CITY           SKY/WX    TMP DP  RH WIND       PRES   REMARKS
Walla Walla    CLEAR     43  36  76 E9        30.64R
Pullman/Moscow CLEAR     44  36  73 E10       30.67F
Lewiston       CLEAR     42  39  89 MISG      30.68F
Lowell           N/A     40  39  97 N5        30.77F
Grangeville    FAIR      32  32 100 CALM      30.68S

...Columbia Basin...

CITY           SKY/WX    TMP DP  RH WIND       PRES   REMARKS
Ephrata        CLEAR     39  33  79 N8        30.65F
Moses Lake     CLEAR     36  33  89 N8        30.66F
Pasco          CLEAR     36  35  96 NW5       30.67S
Richland       SUNNY     38  38  99 CALM      30.66F
Hermiston      CLEAR     36  36 100 SE3       30.64S
Pendleton      CLEAR     44  40  85 CALM      30.62F

...East Slopes Cascades...

CITY           SKY/WX    TMP DP  RH WIND       PRES   REMARKS
The Dalles     FOG       41  40  96 CALM      30.66F VSB 1/4
Yakima         CLEAR     37  34  89 W7        30.67F
Ellensburg     CLEAR     36  33  89 E7        30.66F
Stampede Pass  CLEAR     38  36  92 NE5       30.63F
Wenatchee      CLEAR     39  37  92 NW5       30.66F
Omak           CLEAR     35  34  96 W3        30.68S
Chelan           N/A     39  32  75 MISG        N/A
Sunnyside      SUNNY     33  32  97 CALM      30.66F

...Southern British Columbia...

CITY           SKY/WX    TMP DP  RH WIND       PRES   REMARKS
Penticton      PTCLDY    41  36  81 VRB3      30.65F
Cranbrook      PTCLDY    32  28  86 VRB2      30.67S
Osoyoos          N/A     36  34  93 SE1         N/A
Creston          N/A     41  34  75 E6          N/A

...Western Montana...

CITY           SKY/WX    TMP DP  RH WIND       PRES   REMARKS
Kalispell      MOSUNNY   26  26 100 CALM      30.69S
Libby            N/A     30  30 100 SW3       30.70F
Missoula       CLEAR     32  30  92 CALM      30.72S

...Neighboring Cities...

CITY           SKY/WX    TMP DP  RH WIND       PRES   REMARKS
Seattle        CLEAR     49  46  90 N10         N/A
Portland       CLEAR     45  45 100 CALM      30.52F
Boise          CLEAR     38  33  82 S5        30.66F
Great Falls    CLEAR     44  26  49 SW18      30.45F
Calgary        MOCLDY    54  23  30 W10G17    30.24F



USA.gov is the U.S. government's official web portal to all federal, state and local government web resources and services.